(467491) = 2009 KO20 = 2006 UW63

Discovered at Eskridge on 2006-10-23 by Eskridge.

Orbit

Orbit type: Main Belt

Note: WebGL enabled browser required.

epoch2022-01-21.0
epoch JD2459600.5
perihelion date2020-10-03.28052
perihelion JD2459125.78052
argument of perihelion (°)137.08346
ascending node (°)186.08686
inclination (°)2.64391
eccentricity0.2188261
perihelion distance (AU)1.8353863
Tisserand w.r.t. Jupiter3.5
ΔV w.r.t. Earth (km/sec)8.5
semimajor axis (AU)2.3495235
mean anomaly (°)129.91856
mean daily motion (°/day)0.27367440
aphelion distance (AU)2.864
period (years)3.6
P-vector [x]0.80034402
P-vector [y]-0.56180705
P-vector [z]-0.20933772
Q-vector [x]0.59952108
Q-vector [y]0.74709832
Q-vector [z]0.28708636
absolute magnitude18.42
phase slope0.15
uncertainty0
referenceMPO 700310
observations used129
oppositions6
arc length (days)8177
first opposition used1995
last opposition used2017
residual rms (arc-secs)0.65
perturbers coarse indicatorM-v
perturbers precise indicator003Ek
first observation date used1995-07-26.0
last observation date used2017-12-14.0
computer namePan
Minimum Orbit Intersection Distances (in AU)
for orbit epoch: 2458200.5, reference: MPO434679
Mercury1.42227
Venus1.11167
Earth0.823462
Mars0.461658
Jupiter2.46034
Saturn6.32594
Uranus15.384
Neptune27.2183

Observations

134 total observations over interval: 1995 07 26.33607 – 2017 12 14.25325
These data are available for download (format description).

